DateTimeUTC,F1_A11,F1_S11,BsB_S11,BsG_S11,BsR_S11,BbsB_S11,BbsG_S11,BbsR_S11,BaB_A11,BaG_A11,BaR_A11,Tu_S11,T_S11,Uu_S11,U_S11,P_S11,T1_A11
2021-11-14T21:00:00Z,00000200,21000000,,,,,,,0000.24,0000.21,-000.09,21.2,27.8,,00.0,0624.2,31.2
2021-11-14T21:01:00Z,00000200,21000000,,,,,,,-000.22,0000.01,0000.41,21.2,27.9,,00.0,0624.2,31.2
2021-11-14T21:02:00Z,00000200,21000000,,,,,,,0000.22,0000.36,0000.10,21.2,27.9,,00.0,0624.2,31.2
2021-11-14T21:03:00Z,00000200,61000000,,,,,,,0000.01,-000.37,-000.43,21.2,27.9,,00.0,0624.2,31.3
2021-11-14T21:04:00Z,00000200,41000000,-000.03,0000.39,0000.11,0000.06,-000.25,0000.14,-000.29,-000.03,0000.00,21.5,27.8,,00.0,0625.1,31.3
2021-11-14T21:05:00Z,00000200,01000000,0000.31,0000.41,-000.06,0001.11,-000.11,-000.34,0000.31,-000.08,0000.24,21.6,27.8,,00.0,0625.1,31.3
2021-11-14T21:06:00Z,00000200,01000000,0000.29,0000.01,-000.21,-000.44,-000.05,0000.01,-000.15,0000.21,-000.20,21.6,27.8,,00.0,0625.1,31.3
2021-11-14T21:07:00Z,00000200,01000000,0000.19,0000.16,0000.00,0000.48,-000.27,-000.06,0000.22,-000.21,0000.05,21.6,27.8,,00.0,0625.2,31.3
2021-11-14T21:08:00Z,00000200,01000000,0000.71,0000.16,0000.06,0000.51,0000.10,0000.04,0000.29,0000.26,0000.11,21.6,27.8,,00.0,0625.2,31.3
2021-11-14T21:09:00Z,00000200,01000000,-000.33,0000.22,-000.10,0000.31,-000.02,-000.01,-000.04,0000.23,0000.30,21.6,27.8,,00.0,0625.2,31.3
2021-11-14T21:10:00Z,00000200,01000000,-000.90,0000.06,0000.22,0000.05,-000.16,0000.12,-000.27,-000.24,-000.15,21.6,27.8,,00.0,0625.2,31.3
2021-11-14T21:11:00Z,00000200,01000000,0000.49,0000.03,-000.01,-000.12,0000.13,0000.30,-000.23,0000.05,0000.23,21.7,27.8,,00.0,0625.2,31.3
2021-11-14T21:12:00Z,00000200,01000000,0000.55,0000.04,0000.18,0000.37,-000.14,0000.17,0000.23,0000.06,0000.10,21.7,27.8,,00.0,0625.1,31.3
2021-11-14T21:13:00Z,00000200,01000000,-000.28,0000.18,0000.22,-000.01,0000.14,-000.45,0000.17,0000.18,-000.28,21.7,27.9,,00.0,0625.1,31.3
2021-11-14T21:14:00Z,00000200,01000000,-000.07,-000.15,-000.16,-000.30,0000.16,0000.00,0000.11,0000.08,-000.08,21.7,27.9,,00.0,0625.1,31.3
2021-11-14T21:15:00Z,00000200,01000000,-000.09,0000.01,0000.10,0000.46,0000.12,-000.09,-000.27,-000.30,0000.16,21.7,27.9,,00.0,0625.2,31.3
2021-11-14T21:16:00Z,00000200,01000000,-000.52,0000.23,0000.30,-000.16,0000.18,0000.38,0000.30,0000.08,0000.15,21.7,27.9,,00.0,0625.3,31.3
2021-11-14T21:17:00Z,00000200,01000000,0000.01,0000.02,0000.19,-000.26,-000.00,-000.09,0000.06,0000.29,-000.39,21.8,27.9,,00.0,0625.3,31.3
2021-11-14T21:18:00Z,00000200,01000000,0000.03,0000.18,-000.18,0000.34,-000.15,-000.25,-000.30,0000.14,0000.09,21.7,27.9,,00.0,0625.2,31.3
2021-11-14T21:19:00Z,00000200,01000000,0000.59,0000.12,0000.49,0000.14,-000.09,0000.50,0000.12,-000.49,0000.05,21.6,27.8,,00.0,0625.3,31.3
2021-11-14T21:20:00Z,00000200,01000000,0000.18,0000.23,0000.12,0000.15,-000.01,0000.07,0000.18,0000.16,0000.20,21.6,27.8,,00.0,0625.3,31.3
2021-11-14T21:21:00Z,00000200,01000000,0000.24,0000.20,-000.20,-000.06,-000.17,-000.13,-000.27,0000.00,0000.05,21.5,27.8,,00.0,0625.3,31.3
2021-11-14T21:22:00Z,00000200,01000000,-000.62,-000.00,-000.10,0000.08,-000.13,-000.06,0000.39,-000.04,-000.03,21.5,27.8,,00.0,0625.4,31.3
2021-11-14T21:23:00Z,00000200,01000000,-000.43,-000.05,0000.03,0000.23,-000.25,0000.35,-000.06,0000.19,-000.34,21.5,27.8,,00.0,0625.5,31.3
2021-11-14T21:24:00Z,00000200,01000000,-000.26,0000.10,0000.25,-000.58,0000.12,-000.06,0000.14,0000.05,0000.56,21.5,27.8,,00.0,0625.6,31.3
2021-11-14T21:25:00Z,00000200,01000000,-000.59,0000.20,0000.08,-000.20,-000.13,0000.09,-000.09,0000.15,-000.18,21.6,27.8,,00.0,0625.6,31.3
2021-11-14T21:26:00Z,00000200,01000000,-000.19,0000.34,0000.36,0000.17,0000.14,0000.48,0000.13,0000.08,0000.18,21.6,27.8,,00.0,0625.7,31.3
2021-11-14T21:27:00Z,00000200,01000000,0000.01,-000.01,-000.24,-000.36,-000.17,-000.00,-000.07,-000.28,-000.01,21.6,27.8,,00.0,0625.7,31.3
2021-11-14T21:28:00Z,00000200,01000000,-000.21,0000.24,-000.16,-000.06,-000.02,0000.03,0000.28,0000.22,-000.14,21.6,27.8,,00.0,0625.7,31.3
2021-11-14T21:29:00Z,00000200,01000000,-000.00,-000.01,-000.01,0000.41,-000.11,-000.11,-000.18,-000.19,0000.25,21.7,27.8,,00.0,0625.8,31.3
2021-11-14T21:30:00Z,00000200,01000000,-000.11,-000.04,0000.31,-000.12,0000.00,-000.36,-000.18,0000.21,0000.24,21.7,27.8,,00.0,0625.7,31.3
2021-11-14T21:31:00Z,00000200,01000000,0000.20,0000.39,-000.03,-000.30,0000.23,-000.16,0000.29,0000.24,-000.10,21.6,27.9,,00.0,0625.7,31.3
2021-11-14T21:32:00Z,00000200,01000000,0000.55,0000.27,0000.10,0000.18,0000.08,0000.10,-000.29,0000.15,-000.13,21.5,27.8,,00.0,0625.6,31.3
2021-11-14T21:33:00Z,00000200,01000000,0000.64,0000.68,0000.09,0000.18,-000.01,0000.50,0000.55,0000.01,0000.15,21.4,27.7,,00.0,0625.6,31.2
2021-11-14T21:34:00Z,00000200,01000000,0000.43,0000.17,-000.06,0000.13,-000.13,-000.07,-000.22,0000.00,-000.04,21.2,27.7,,00.0,0625.6,31.2
2021-11-14T21:35:00Z,00000200,01000000,-000.49,0000.26,0000.21,0000.60,0000.17,-000.26,0000.23,-000.14,-000.10,21.2,27.6,,00.0,0625.5,31.2
2021-11-14T21:36:00Z,00000200,01010000,0000.58,0000.20,-000.11,0000.31,0000.14,0000.02,0000.29,0000.14,0000.13,21.1,27.6,,00.0,0625.4,31.2
2021-11-14T21:37:00Z,00000200,01000000,-000.06,0000.31,0000.05,0000.10,0000.41,0000.09,0000.02,0000.30,0000.56,21.1,27.6,,00.0,0625.4,31.1
2021-11-14T21:38:00Z,00000200,01000000,-000.07,0000.23,0000.09,-000.03,-000.11,0000.14,0000.25,0000.09,-000.25,21.2,27.6,,00.0,0625.3,31.1
2021-11-14T21:39:00Z,00000200,01000000,-000.13,0000.12,-000.30,0000.23,-000.12,-000.28,-000.11,-000.16,-000.00,21.2,27.6,,00.0,0625.2,31.2
2021-11-14T21:40:00Z,00000200,01000000,0000.44,0000.07,0000.34,0000.29,-000.06,0000.10,0000.32,0000.02,0000.13,21.2,27.6,,00.0,0625.2,31.2
2021-11-14T21:41:00Z,00000200,01000000,0000.57,0000.22,-000.07,0000.05,0000.15,-000.26,0000.11,0000.34,0000.18,21.2,27.6,,00.0,0625.2,31.2
2021-11-14T21:42:00Z,00000200,01000000,0000.41,0000.62,-000.14,-000.19,0000.28,0000.33,-000.16,0000.24,0000.06,21.2,27.6,,00.0,0625.2,31.2
2021-11-14T21:43:00Z,00000200,01000000,-000.02,0000.09,-000.22,-000.07,-000.08,-000.01,0000.17,-000.19,-000.14,21.3,27.6,,00.0,0625.3,31.2
2021-11-14T21:44:00Z,00000200,01000000,0000.30,0000.19,-000.08,0000.49,0000.22,-000.23,0000.25,0000.31,0000.32,21.3,27.6,,00.0,0625.3,31.2
2021-11-14T21:45:00Z,00000200,01000000,0000.09,0000.05,0000.04,0000.25,0000.04,-000.21,-000.38,-000.31,-000.12,21.3,27.6,,00.0,0625.4,31.2
2021-11-14T21:46:00Z,00000200,01000000,0000.19,0000.10,0000.20,-000.32,-000.04,0000.05,0000.21,-000.11,0000.02,21.4,27.6,,00.0,0625.3,31.2
2021-11-14T21:47:00Z,00000200,01000000,-000.14,0000.21,-000.27,0000.04,-000.07,0000.05,0000.18,0000.08,-000.02,21.4,27.6,,00.0,0625.4,31.2
2021-11-14T21:48:00Z,00000200,01000000,0000.25,0000.03,0000.33,-000.27,-000.14,0000.16,0000.19,0000.57,0000.35,21.3,27.6,,00.0,0625.3,31.2
2021-11-14T21:49:00Z,00000200,01000000,0000.35,0000.22,0000.08,0000.71,0000.10,-000.11,-000.08,0000.20,-000.13,21.2,27.6,,00.0,0625.3,31.2
2021-11-14T21:50:00Z,00000200,01000000,0000.27,0000.14,-000.01,0000.40,0000.08,-000.13,-000.24,-000.30,0000.29,21.2,27.6,,00.0,0625.3,31.2
2021-11-14T21:51:00Z,00000200,01000000,-000.71,-000.15,-000.18,0000.07,0000.05,-000.46,0000.27,-000.05,-000.37,21.1,27.5,,00.0,0625.3,31.2
2021-11-14T21:52:00Z,00000200,01000000,0000.29,0000.15,0000.04,0000.74,-000.07,0000.34,0000.13,0000.47,0000.56,21.2,27.5,,00.0,0625.4,31.2
2021-11-14T21:53:00Z,00000200,01000000,0000.51,-000.16,-000.40,-000.21,-000.02,0000.10,-000.21,-000.49,-000.17,21.2,27.6,,00.0,0625.4,31.2
2021-11-14T21:54:00Z,00000200,01000000,0000.20,0000.15,-000.33,-000.06,-000.17,-000.20,0000.26,0000.16,0000.01,21.2,27.5,,00.0,0625.5,31.2
2021-11-14T21:55:00Z,00000200,01000000,0000.33,0000.22,-000.17,0000.09,0000.07,-000.05,-000.29,-000.29,-000.43,21.2,27.6,,00.0,0625.6,31.2
2021-11-14T21:56:00Z,00000200,01000000,0000.39,0000.18,-000.26,-000.14,-000.04,-000.00,0000.21,0000.20,0000.24,21.3,27.6,,00.0,0625.6,31.2
2021-11-14T21:57:00Z,00000200,41000000,,,,,,,-000.12,0000.11,0000.23,21.3,27.6,,00.0,0625.6,31.2
2021-11-14T21:58:00Z,00000200,61000000,,,,,,,-000.35,0000.26,-000.05,21.0,27.7,,00.0,0624.7,31.2
2021-11-14T21:59:00Z,00000200,21000000,,,,,,,0000.36,-000.39,0000.17,21.0,27.8,,00.0,0624.6,31.2
